Location: Newark
(39.5667°N, 8.9833°E)
Time: 08:57:58
(UTC+00:00)

Transit 2A - Pass Details

Date: 25 October 2019
Orbit: 601 x 957 km, 66.7° (Epoch: 17 November)

Event Time Altitude Azimuth Distance (km) Brightness Sun altitude
Rises 01:06:37 0° 347° (NNW) 2,893 - -52.0°
Reaches altitude 10° 01:09:58 10° 14° (NNE) 1,958 - -51.5°
Maximum altitude 01:12:13 14° 45° (NE) 1,715 - -51.1°
Drops below altitude 10° 01:14:28 10° 76° (ENE) 1,947 - -50.8°
Sets 01:17:46 0° 103° (ESE) 2,864 - -50.2°
